Weather observations for the past three days for
San Luis Valley Regional Airport
Metric (Imperial)
Date Time (mdt) Wind (kph) Vis. (km) Weather Sky Cond. Temperature (ºC) Relative Humidity Wind Chill (°C) Heat Index (°C) Pressure Precipitation (cm)
Air Dwpt 6 hour altimeter (cm) sea level (mb) 1 hr 3 hr 6 hr
Max. Min.
16 06:52 Calm 16.09 Fair CLR 8.9 6.7 86% 76.53 1012.2
16 05:52 N 7 16.09 Fair CLR 5.6 3.9 11.7 5.6 89% 4 76.5 1012.7
16 04:52 S 7 16.09 Fair CLR 7.2 4.4 83% 6 76.5 1012.3
16 03:52 Calm 16.09 Fair CLR 7.2 5.6 90% 76.45 1010.8
16 02:52 E 11 16.09 Fair CLR 6.7 5.6 93% 5 76.5 1011.5
16 01:52 SW 6 16.09 Fair CLR 7.8 5.6 86% 76.48 1011.1
16 00:52 NW 9 16.09 Fair CLR 10 7.2 83% 9 76.5 1011.5
15 23:52 Calm 16.09 Fair CLR 12.2 6.1 22.2 12.2 67% 76.53 1011.8
15 22:52 NE 11 16.09 Fair CLR 15 6.1 56% 76.56 1011.7
15 21:52 E 7 16.09 Fair CLR 16.1 8.9 63% 76.56 1012.0
15 20:52 Calm 16.09 Fair CLR 17.2 10 63% 76.48 1011.3
15 19:52 E 7 16.09 Partly Cloudy SCT110 20 10.6 55% 76.45 1011.1
15 18:52 E 9 16.09 Fair CLR 20 11.1 57% 76.45 1011.6
15 17:52 E 13 16.09 A Few Clouds FEW110 19.4 10 24.4 12.8 55% 76.45 1012.0 0.25 0.25
15 16:52 N 35 G 54 16.09 Thunderstorm Light Rain and Breezy OVC100 18.9 6.7 45% 76.5 1013.1
15 15:52 Calm 16.09 Fair CLR 23.9 3.3 26% 25 76.48 1011.6
15 14:52 Vrbl 7 16.09 Partly Cloudy SCT110 23.3 4.4 29% 76.56 1012.3
15 13:52 SW 9 16.09 Fair CLR 22.8 7.2 37% 76.61 1012.9
15 12:52 Vrbl 7 16.09 Fair CLR 21.1 8.3 44% 76.68 1014.2
15 11:52 Calm 16.09 Fair CLR 18.3 8.3 18.9 6.1 52% 76.73 1015.2
15 09:52 E 7 16.09 Fair CLR 15 8.3 64% 76.84 1017.3
15 08:52 NW 7 16.09 Fair CLR 12.2 8.9 80% 76.89 1018.4
15 07:52 Calm 9.66 Fog/Mist OVC002 8.9 8.9 100% 76.89 1019.1
15 06:52 W 6 0.40 Fog VV002 6.7 6.7 100% 76.86 1018.7
15 05:52 Calm 0.40 Fog VV002 6.1 6.1 10 5 100% 76.86 1017.9
15 04:52 Calm 1.21 Fog/Mist VV002 5 4.4 96% 76.84 1018.5
15 03:52 SW 9 14.48 Mostly Cloudy BKN001 5 5 100% 3 76.84 1018.9
15 02:52 Calm 16.09 Fair CLR 6.1 5.6 97% 76.84 1019.2
15 01:52 Calm 16.09 Fair CLR 7.8 7.2 96% 76.84 1018.7
15 00:52 NE 6 16.09 Fair CLR 8.3 7.8 97% 76.86 1018.3
14 23:52 E 6 16.09 A Few Clouds FEW070 10 8.9 17.8 9.4 93% 76.86 1017.4 0.18
14 22:52 E 7 16.09 Mostly Cloudy BKN095 10.6 9.4 92% 76.86 1016.1
14 21:52 E 6 16.09 Partly Cloudy SCT085 10 8.9 93% 76.84 1015.6
14 20:52 Calm 16.09 Fair CLR 11.7 10 89% 76.86 1016.3 0.18
14 19:52 S 15 16.09 Light Rain SCT060 SCT075 OVC100 11.7 10 89% 76.86 1016.8 0.18
14 18:52 W 33 G 61 16.09 Thunderstorm Light Rain and Breezy FEW036 BKN046 OVC090 13.9 7.8 67% 76.91 1017.9
14 17:52 SW 9 16.09 Fair CLR 17.8 9.4 17.8 11.1 58% 76.81 1016.3 0.2
14 16:52 SE 11 16.09 Fair CLR 15.6 9.4 67% 76.81 1017.0
14 15:52 SE 24 G 37 16.09 A Few Clouds FEW018 15 10.6 75% 76.99 1019.3
14 14:52 SE 26 G 37 16.09 Partly Cloudy SCT100 SCT120 12.2 9.4 83% 77.11 1021.2 0.08 0.2
14 13:52 SW 26 G 48 14.48 Light Rain BKN060 OVC075 12.2 9.4 83% 77.17 1022.3 0.13
14 12:52 NW 33 G 48 16.09 Light Rain and Breezy OVC065 14.4 7.8 65% 77.19 1021.7
14 11:52 NW 41 G 67 14.48 Light Rain and Breezy SCT085 BKN110 16.7 5 23.3 10.6 46% 77.11 1019.3
14 10:52 NE 11 16.09 Overcast OVC110 21.1 5 35% 77.01 1016.4
14 09:52 E 13 16.09 Fair CLR 22.8 3.9 29% 76.96 1014.8
14 08:52 E 6 16.09 Fair CLR 18.9 5.6 42% 76.96 1014.9
14 07:52 W 6 16.09 Fair CLR 16.7 6.7 52% 76.96 1015.5
14 06:52 S 9 16.09 Fair CLR 13.9 7.2 64% 76.91 1014.6
14 05:52 Calm 16.09 Fair CLR 10.6 6.7 17.8 9.4 77% 76.91 1014.5
14 04:52 Vrbl 7 16.09 Fair CLR 10 6.1 77% 9 76.91 1014.8
14 03:52 S 9 16.09 Fair CLR 11.1 6.1 72% 76.91 1014.5
14 02:52 S 6 16.09 Fair CLR 13.3 3.3 51% 76.86 1013.2
14 01:52 W 9 16.09 Fair CLR 12.2 5.6 64% 76.89 1013.9
14 00:52 SW 15 16.09 Fair CLR 13.3 5 57% 76.89 1013.8
13 23:52 NE 7 16.09 Fair CLR 16.7 3.3 30.6 15.6 41% 76.89 1013.5
13 22:52 NW 7 16.09 Fair CLR 18.3 2.2 34% 76.89 1013.8
13 21:52 NW 11 16.09 Fair CLR 20 1.1 28% 76.86 1013.7
13 20:52 NW 19 16.09 Fair CLR 23.9 0 21% 24 76.84 1013.0
13 19:52 NW 15 16.09 Fair CLR 24.4 1.7 23% 25 76.81 1013.7
13 18:52 N 7 16.09 Fair CLR 27.8 0 16% 27 76.78 1013.4
13 17:52 N 20 16.09 Fair CLR 30.6 -1.1 31.7 27.2 13% 29 76.78 1013.8
13 16:52 E 6 16.09 Fair CLR 30 -3.9 11% 28 76.84 1014.1
13 15:52 Vrbl 9 G 26 16.09 Fair CLR 31.1 -2.2 11% 29 76.89 1014.2
13 14:52 S 15 16.09 Fair CLR 31.1 -2.2 11% 29 76.94 1014.7
13 13:52 Vrbl 9 16.09 Fair CLR 30 -3.9 11% 28 76.99 1015.7
13 12:52 E 9 16.09 Fair CLR 29.4 -0.6 14% 28 77.04 1016.3
13 11:52 E 9 16.09 Fair CLR 27.2 3.3 27.8 6.7 21% 26 77.06 1016.7
13 10:52 Calm 16.09 Fair CLR 25 3.3 24% 25 77.09 1016.9
13 09:52 N 6 16.09 Fair CLR 22.2 3.3 29% 77.11 1017.3
13 08:52 NE 6 16.09 Fair CLR 18.9 5 40% 77.11 1018.2
13 07:52 Calm 16.09 Fair CLR 15 5 51% 77.09 1017.7
Date Time (mdt) Wind (kph) Vis. (km) Weather Sky Cond. Air Dwpt Max. Min. Relative Humidity Wind Chill (°C) Heat Index (°C) altimeter (cm) sea level (mb) 1 hr 3 hr 6 hr
6 hour
Temperature (ºC) Pressure Precipitation (cm)